Weather reports worldwide

Advertisment
Dunkerque, France (7010): temperature & dewpoint: 12.07.2019 07:00:00 - 18.07.2019 07:00:00 (CEST)Dunkerque, France (7010): wind speed & gusts: 12.07.2019 07:00:00 - 18.07.2019 07:00:00 (CEST)Dunkerque, France (7010): wind direction: 12.07.2019 07:00:00 - 18.07.2019 07:00:00 (CEST)Dunkerque, France (7010): reduced air pressure: 12.07.2019 07:00:00 - 18.07.2019 07:00:00 (CEST)Dunkerque, France (7010): visibility: 12.07.2019 07:00:00 - 18.07.2019 07:00:00 (CEST)Dunkerque, France (7010): precipitation: 12.07.2019 07:00:00 - 18.07.2019 07:00:00 (CEST)
Date & Time tt [°C] td [°C] ff [km/h] ff [kn] fx [km/h] fx [kn] dd ppp [hPa] vv [km] rr [mm]
18.07.2019 07:00:00 15,9 14,1 16 9 24 13 SSW 1011,0 - 0,0
18.07.2019 06:00:00 15,9 14,1 14 8 26 14 SSW 1011,3 - 0,0
18.07.2019 05:00:00 16,2 13,9 18 10 30 16 SSW 1011,3 15 0,0
18.07.2019 04:00:00 17,1 13,6 18 10 40 22 SW 1011,5 - 0,0
18.07.2019 03:00:00 17,4 13,3 21 11 34 18 SW 1012,0 - 0,0
18.07.2019 02:00:00 17,7 12,4 17 9 31 17 SW 1012,5 12 0,0
18.07.2019 01:00:00 18,0 12,2 16 9 30 16 WSW 1012,4 - 0,0
18.07.2019 00:00:00 18,4 12,6 13 7 23 13 SW 1012,5 - 0,0
17.07.2019 23:00:00 19,3 10,8 12 6 24 13 SW 1012,6 - 0,0
17.07.2019 22:00:00 19,3 13,0 19 10 29 15 W 1012,8 - 0,0
17.07.2019 21:00:00 19,2 15,1 25 13 33 18 W 1013,0 - 0,0
17.07.2019 20:00:00 19,9 15,3 17 9 23 12 WNW 1012,9 - 0,0
17.07.2019 19:00:00 20,8 16,2 10 5 19 10 N 1013,1 - 0,0
17.07.2019 18:00:00 21,7 16,0 13 7 22 12 NE 1013,5 - 0,0
17.07.2019 17:00:00 22,1 16,1 15 8 22 12 NE 1013,8 - 0,0
17.07.2019 16:00:00 22,2 16,0 18 10 22 12 NNE 1014,3 - 0,0
17.07.2019 15:00:00 22,3 15,6 15 8 19 11 N 1014,8 - 0,0
17.07.2019 14:00:00 22,1 15,2 14 8 22 12 N 1015,3 - 0,0
17.07.2019 13:00:00 22,5 14,3 15 8 18 10 NE 1015,7 - 0,0
17.07.2019 12:00:00 23,8 11,1 6 4 18 10 SSE 1015,9 - 0,0
17.07.2019 11:00:00 22,2 11,3 8 4 16 8 ESE 1016,2 18 0,0
17.07.2019 10:00:00 19,6 12,8 10 5 14 8 SSE 1016,4 - 0,0
17.07.2019 09:00:00 18,1 12,5 10 5 16 9 SSE 1016,5 - 0,0
17.07.2019 08:00:00 15,5 12,4 11 6 16 9 S 1016,3 - 0,0
17.07.2019 07:00:00 14,3 12,2 9 5 14 7 S 1016,3 - 0,0
17.07.2019 06:00:00 13,8 12,0 8 4 11 6 S 1016,6 - 0,0
17.07.2019 05:00:00 13,8 12,0 8 4 13 7 S 1016,8 - 0,0
17.07.2019 04:00:00 14,8 12,8 10 5 12 6 S 1017,0 - 0,0
17.07.2019 03:00:00 16,8 13,7 5 3 9 5 S 1017,4 - 0,0
17.07.2019 02:00:00 17,2 13,9 6 3 10 5 NNE 1017,8 - 0,0
17.07.2019 01:00:00 17,6 14,5 6 4 9 5 NNE 1017,9 - 0,0
17.07.2019 00:00:00 17,8 13,9 6 3 8 4 NNE 1018,0 - 0,0
16.07.2019 23:00:00 17,7 12,8 4 2 6 3 N 1018,1 25 0,0
16.07.2019 22:00:00 18,1 12,8 4 2 11 6 NNW 1018,0 - 0,0
16.07.2019 21:00:00 18,9 14,0 9 5 14 7 NNW 1018,1 - 0,0
16.07.2019 20:00:00 19,9 12,6 6 4 10 5 NNW 1018,3 - 0,0
16.07.2019 19:00:00 20,2 12,2 6 3 15 8 NNW 1018,4 - 0,0
16.07.2019 18:00:00 20,8 12,0 9 5 16 8 NW 1018,7 - 0,0
16.07.2019 17:00:00 21,1 11,4 10 5 18 10 NW 1019,1 - 0,0
16.07.2019 16:00:00 20,0 11,2 11 6 19 11 NW 1019,6 - 0,0
16.07.2019 15:00:00 19,6 12,1 14 8 19 11 NW 1019,7 - 0,0
16.07.2019 14:00:00 18,7 12,4 12 6 16 9 NNW 1019,8 25 0,0
16.07.2019 13:00:00 19,3 12,3 9 5 18 10 NW 1020,2 - 0,0
16.07.2019 12:00:00 18,3 11,8 13 7 19 10 WNW 1020,5 - 0,0
16.07.2019 11:00:00 18,0 11,1 6 3 13 7 NNW 1020,6 25 0,0
16.07.2019 10:00:00 17,2 10,8 6 3 13 7 NNW 1020,8 - 0,0
16.07.2019 09:00:00 16,6 11,1 8 4 13 7 N 1020,7 - 0,0
16.07.2019 08:00:00 16,1 11,0 8 5 16 9 N 1020,6 - 0,0
16.07.2019 07:00:00 15,9 11,1 6 4 13 7 N 1020,5 - 0,0
16.07.2019 06:00:00 15,6 11,0 8 4 15 8 N 1020,4 - 0,0
16.07.2019 05:00:00 15,8 11,0 9 5 15 8 N 1020,4 15 0,0
16.07.2019 04:00:00 15,5 10,5 8 4 16 9 NNE 1020,5 - 0,0
16.07.2019 03:00:00 15,6 10,6 10 5 16 9 NNE 1020,9 - 0,0
16.07.2019 02:00:00 15,6 10,1 9 5 15 8 NNE 1021,1 15 0,0
16.07.2019 01:00:00 15,2 9,8 7 4 14 8 NE 1021,3 - 0,0
16.07.2019 00:00:00 15,3 9,2 9 5 26 14 NNE 1021,4 - 0,0
15.07.2019 23:00:00 16,1 10,2 13 7 24 13 N 1021,7 - 0,0
15.07.2019 22:00:00 16,2 10,7 17 9 29 15 NNE 1021,6 - 0,0
15.07.2019 21:00:00 16,2 11,1 16 9 25 14 NNE 1021,4 - 0,0
15.07.2019 20:00:00 16,3 11,2 15 8 30 16 NNE 1021,6 15 0,0
15.07.2019 19:00:00 16,6 11,3 17 9 26 14 NNE 1021,7 - 0,0
15.07.2019 18:00:00 17,3 11,3 19 10 28 15 NNE 1022,0 - 0,0
15.07.2019 17:00:00 17,7 10,8 17 9 30 16 NNE 1022,3 15 0,0
15.07.2019 16:00:00 16,8 11,9 16 9 27 15 N 1022,3 - 0,0
15.07.2019 15:00:00 17,3 10,9 17 9 32 18 N 1022,2 - 0,0
15.07.2019 14:00:00 18,2 10,1 20 11 27 15 NNE 1022,2 - 0,0
15.07.2019 13:00:00 17,6 10,7 19 10 29 16 N 1022,2 - 0,0
15.07.2019 12:00:00 16,6 10,4 19 10 30 16 N 1022,1 - 0,0
15.07.2019 11:00:00 16,1 10,8 19 11 33 18 N 1022,0 15 0,0
15.07.2019 10:00:00 15,7 10,9 22 12 32 17 N 1022,0 - 0,0
15.07.2019 09:00:00 15,7 10,2 18 10 32 17 N 1021,8 - 0,0
15.07.2019 08:00:00 15,2 10,8 19 11 29 16 N 1021,3 15 0,0
15.07.2019 07:00:00 15,7 10,5 16 9 27 15 N 1021,3 - 0,0
15.07.2019 06:00:00 15,7 9,8 10 5 24 13 N 1021,4 - 0,0
15.07.2019 05:00:00 15,6 9,0 16 9 28 15 NNE 1021,3 15 0,0
15.07.2019 04:00:00 15,6 10,8 19 11 32 17 N 1021,3 - 0,0
15.07.2019 03:00:00 15,5 10,5 22 12 34 18 N 1021,9 - 0,0
15.07.2019 02:00:00 16,0 11,6 24 13 35 19 NNE 1022,1 15 0,0
15.07.2019 01:00:00 16,0 11,4 22 12 34 19 N 1022,3 - 0,0
15.07.2019 00:00:00 15,7 10,9 22 12 37 20 NNE 1022,4 - 0,0
14.07.2019 23:00:00 15,8 11,4 29 16 41 22 NNE 1022,4 15 0,0
14.07.2019 22:00:00 15,9 12,5 33 18 40 22 NNE 1022,1 - 0,0
14.07.2019 21:00:00 16,6 12,7 29 16 38 21 NNE 1022,2 - 0,0
14.07.2019 20:00:00 17,0 12,5 24 13 36 19 NNE 1022,3 15 0,0
14.07.2019 19:00:00 17,5 12,4 24 13 39 21 NNE 1022,3 - 0,0
14.07.2019 18:00:00 17,6 12,3 27 14 40 22 N 1022,2 - 0,0
14.07.2019 17:00:00 18,2 13,5 26 14 41 22 N 1022,4 15 0,0
14.07.2019 16:00:00 17,9 12,3 24 13 36 20 NNE 1022,4 - 0,0
14.07.2019 15:00:00 17,5 11,7 29 15 39 21 NNE 1022,6 - 0,0
14.07.2019 14:00:00 18,5 12,5 22 12 35 19 N 1022,6 - 0,0
14.07.2019 13:00:00 18,3 12,5 22 12 33 18 N 1022,6 - 0,0
14.07.2019 12:00:00 17,5 12,4 22 12 32 17 N 1022,6 - 0,0
14.07.2019 11:00:00 18,0 12,4 23 12 44 24 NNE 1022,5 15 0,2
14.07.2019 10:00:00 16,9 12,4 27 15 41 22 NNE 1022,3 - 0,0
14.07.2019 09:00:00 16,9 12,2 26 14 43 23 NNE 1022,0 - 0,0
14.07.2019 08:00:00 16,6 12,1 29 16 42 23 NNE 1021,7 - 0,0
14.07.2019 07:00:00 16,4 11,3 25 13 43 23 NNE 1021,4 - 0,0
14.07.2019 06:00:00 16,3 11,7 21 11 37 20 NNE 1021,3 - 0,0
14.07.2019 05:00:00 16,2 12,4 24 13 32 17 NNE 1021,4 15 0,0
14.07.2019 04:00:00 16,4 12,0 19 10 36 19 N 1021,7 - 0,0
14.07.2019 03:00:00 16,6 12,1 20 11 33 18 NNE 1022,0 - 0,0
14.07.2019 02:00:00 16,4 13,1 25 13 33 18 NNE 1021,8 15 0,0
14.07.2019 01:00:00 16,5 13,0 27 15 34 18 NNE 1021,9 - -
14.07.2019 00:00:00 16,7 13,2 24 13 32 18 NNE 1022,1 - 0,0
13.07.2019 23:00:00 16,5 12,8 22 12 32 17 NNE 1022,1 15 0,0
13.07.2019 22:00:00 16,6 12,5 22 12 31 17 NNE 1022,2 - 0,0
13.07.2019 21:00:00 17,1 12,8 21 11 29 16 NNE 1022,0 - 0,0
13.07.2019 20:00:00 17,3 12,6 17 9 28 15 N 1021,9 - 0,0
13.07.2019 19:00:00 18,0 13,1 14 8 23 13 N 1021,9 - 0,0
13.07.2019 18:00:00 18,8 13,4 13 7 23 12 N 1021,8 - 0,0
13.07.2019 17:00:00 18,4 13,9 16 9 25 13 N 1022,0 15 0,0
13.07.2019 16:00:00 18,7 14,4 15 8 27 14 N 1022,0 - 0,0
13.07.2019 15:00:00 18,0 14,1 16 9 27 15 NNW 1021,9 - 0,0
13.07.2019 14:00:00 18,4 14,3 16 9 25 13 NNW 1021,8 - 0,0
13.07.2019 13:00:00 17,8 13,9 15 8 21 11 NNW 1021,6 - 0,0
13.07.2019 12:00:00 18,4 14,3 15 8 29 16 N 1021,2 - 0,0
13.07.2019 11:00:00 17,9 13,6 17 9 31 17 N 1021,1 - 0,0
13.07.2019 10:00:00 17,8 13,3 22 12 31 17 N 1020,9 - 0,0
13.07.2019 09:00:00 17,4 13,7 22 12 34 18 N 1020,1 - 0,0
13.07.2019 08:00:00 17,0 13,5 22 12 34 18 N 1019,9 12 0,0
13.07.2019 07:00:00 16,9 14,5 21 11 34 18 N 1019,5 - 0,0
13.07.2019 06:00:00 17,0 13,7 23 12 31 17 NNW 1019,0 - 0,0
13.07.2019 05:00:00 17,5 14,2 18 10 32 18 NNW 1018,9 15 0,0
13.07.2019 04:00:00 17,5 14,8 16 8 24 13 NW 1018,5 - 0,0
13.07.2019 03:00:00 17,2 15,0 10 5 17 9 N 1018,2 - 0,0
13.07.2019 02:00:00 17,3 14,8 13 7 21 11 N 1018,4 15 0,0
13.07.2019 01:00:00 17,2 14,5 16 9 24 13 NNE 1018,1 - 0,0
13.07.2019 00:00:00 17,9 14,6 19 10 24 13 NNE 1017,9 - 0,0
12.07.2019 23:00:00 18,3 15,2 10 5 17 9 NNE 1017,5 - 0,0
12.07.2019 22:00:00 18,9 15,8 10 5 20 11 N 1016,6 - 0,0
12.07.2019 21:00:00 20,1 15,1 13 7 25 13 NW 1016,0 - 0,0
12.07.2019 20:00:00 20,9 16,1 16 9 26 14 W 1015,3 - 0,0
12.07.2019 19:00:00 21,9 16,2 21 11 31 17 W 1014,9 - 0,0
12.07.2019 18:00:00 21,5 15,3 15 8 22 12 WNW 1015,0 - 0,0
12.07.2019 17:00:00 21,3 13,5 10 5 14 8 NW 1015,1 15 0,0
12.07.2019 16:00:00 20,4 12,9 8 5 16 9 N 1014,6 - 0,0
12.07.2019 15:00:00 20,6 13,5 13 7 28 15 WNW 1014,5 - 0,0
12.07.2019 14:00:00 19,5 14,5 21 11 30 16 NNW 1014,7 15 0,0
12.07.2019 13:00:00 19,1 14,1 18 10 32 17 NW 1014,3 - 0,0
12.07.2019 12:00:00 19,4 15,3 21 12 34 18 NW 1013,6 - 0,0
12.07.2019 11:00:00 19,8 15,6 23 12 32 17 W 1013,3 - 0,0
12.07.2019 10:00:00 19,9 15,5 21 11 31 17 W 1013,2 - 0,0
12.07.2019 09:00:00 19,6 15,5 18 10 28 15 W 1012,8 - 0,0
12.07.2019 08:00:00 19,2 15,3 16 9 28 15 W 1012,4 - 0,0
12.07.2019 07:00:00 18,8 16,0 17 9 24 13 W 1012,2 - 0,0

tt = temperature
td = dewpoint
ff = wind speed
fx = gusts
dd = wind direction
ppp = reduced air pressure
vv = visibility
rr = precipitation

Next stations